[[{"header":{"parameterUnit":"m.s-1","parameterCategory":1,"la1":30.2992,"la2":30.254,"lo1":-89.0895,"lo2":-89.0443,"dy":0.0025,"dx":0.0025,"nx":19,"ny":19,"refTime":"2026-04-07T09:00:00:Z","depth":0,"parameterNumber":2,"parameterNumberName":"U-component_of_WINDS"},"data":[0,0,0,-5.8384,-5.839,-5.8678,-5.8679,-5.9082,-5.9085,0,0,0,0,0,0,0,0,0,0,0,-5.8318,-5.8321,-5.8383,-5.8391,-5.8678,-5.8679,-5.9081,-5.9086,0,0,0,0,0,0,0,0,0,0,0,-5.8316,-5.832,-5.8324,-5.8392,-5.8678,-5.8679,-5.908,-5.8851,0,0,0,0,0,0,0,0,0,0,-5.8566,-5.8523,-5.8319,-5.8324,-5.8394,-5.8678,-5.8679,-5.884,-5.8866,-5.8966,0,-5.9058,0,-5.9078,-5.9114,-5.9116,0,0,0,-5.8378,-5.8502,-5.8562,-5.8325,-5.8397,-5.8677,-5.8545,-5.8854,-5.8883,-5.9,-5.9063,-5.9077,-5.9085,-5.9117,-5.9119,-5.9735,-5.9738,0,0,-5.8362,-5.838,-5.8542,-5.8582,-5.8537,-5.8536,-5.8554,-5.8871,-5.8942,-5.9064,-5.9086,-5.9091,-5.912,-5.9123,-5.9732,-5.9736,0,0,0,-5.8325,-5.837,-5.8421,-5.8566,-5.8615,-5.8544,-5.8565,-5.8928,-5.8943,-5.909,-5.9096,-5.9123,-5.9128,-5.9728,-5.9733,-5.9922,0,0,0,-5.8315,-5.8348,-5.8415,-5.8429,-5.861,-5.8775,-5.8615,-5.8921,-5.8956,-5.9094,-5.9123,-5.9132,-5.9724,-5.9731,-5.9908,-6.0008,0,0,0,-5.8293,-5.8345,-5.8393,-5.843,-5.8554,-5.8769,-5.8802,-5.8928,-5.8961,-5.9116,-5.9133,-5.9721,-5.9729,-5.9896,-5.9988,-6.0174,0,0,0,-5.8275,-5.8559,-5.8397,-5.8717,-5.8551,-5.8883,-5.8799,-5.9047,-5.9203,-5.9125,-5.9724,-5.9733,-5.9892,-5.9976,-6.0162,-6.0333,-6.0406,0,0,-5.8644,-5.8604,-5.8791,-5.8654,-5.9019,-5.8838,-5.9232,-5.9359,-5.9359,-5.961,-5.9625,-5.9913,-5.9987,-6.0172,-6.0813,-6.0872,0,0,0,-5.8915,-5.9049,-5.9142,-5.929,-5.9392,-5.9489,-5.9553,-5.96,-5.9812,-5.9491,-6.003,-6.0074,-6.0182,-6.0263,-6.0313,-6.0403,-5.9771,-5.977,-5.9769,-5.9464,-5.9446,-5.9754,-5.977,-5.9916,-5.9979,-6.0095,-6.017,-6.0111,-6.0239,-6.0313,-6.0704,-6.08,-6.0837,-6.0932,-6.0403,-6.0404,-6.0405,-6.0405,-6.0003,-6.0189,-6.0103,-6.037,-6.035,-6.0576,-6.0649,-6.0599,-6.0808,-6.0647,-6.0741,-6.0566,-6.0902,-6.0984,-6.042,-6.0417,-6.0415,-6.0414,-6.0413,-6.0359,-6.0445,-6.0496,-6.0707,-6.0873,-6.0881,-6.1084,-6.106,-6.1039,-6.1132,-6.1207,-6.1204,-6.1197,-6.117,-6.1171,-6.1173,-6.1174,-6.1175,-6.1176,-6.0708,-6.0759,-6.0931,-6.1064,-6.1155,-6.1272,-6.1339,-6.1429,-6.1523,-6.149,-6.149,-6.1419,-6.0938,-6.0816,-6.1197,-6.1193,-6.119,-6.1188,-6.1187,-6.1258,-6.1129,-6.1396,-6.1488,-6.164,-6.1806,-6.1772,-6.1958,-6.203,-6.2131,-6.204,-6.1689,-6.1647,-6.1607,-6.1507,-6.2043,-6.2043,-6.2043,-6.2043,-6.1558,-6.1534,-6.18,-6.1948,-6.209,-6.2086,-6.239,-6.2445,-6.2483,-6.2526,-6.2446,-6.2311,-6.2271,-6.2253,-6.22,-6.2105,-6.2782,-6.2782,-6.2783,-6.1895,-6.1883,-6.2145,-6.2176,-6.2294,-6.2396,-6.2681,-6.2857,-6.2873,-6.2812,-6.256,-6.2529,-6.231,-6.2241,-6.2173,-6.209,-6.1917,0,0]},{"header":{"parameterUnit":"m.s-1","parameterCategory":1,"la1":30.2992,"la2":30.254,"lo1":-89.0895,"lo2":-89.0443,"dy":0.0025,"dx":0.0025,"nx":19,"ny":19,"refTime":"2026-04-07T09:00:00:Z","depth":0,"parameterNumber":3,"parameterNumberName":"V-component_of_WINDS"},"data":[0,0,0,0.6944,0.6945,0.7026,0.7026,0.7117,0.7118,0,0,0,0,0,0,0,0,0,0,0,0.6912,0.6913,0.6944,0.6946,0.7026,0.7026,0.7117,0.7118,0,0,0,0,0,0,0,0,0,0,0,0.6912,0.6913,0.6913,0.6946,0.7026,0.7026,0.7117,0.7061,0,0,0,0,0,0,0,0,0,0,0.6985,0.6948,0.6913,0.6913,0.6946,0.7026,0.7026,0.7058,0.7064,0.7076,0,0.7083,0,0.7102,0.7123,0.7123,0,0,0,0.6951,0.6943,0.6971,0.6913,0.6947,0.7025,0.6991,0.7061,0.7068,0.7083,0.7085,0.7088,0.7103,0.7124,0.7124,0.717,0.717,0,0,0.6947,0.6923,0.6967,0.6975,0.6962,0.6989,0.6994,0.7066,0.7066,0.7085,0.7091,0.7105,0.7124,0.7125,0.717,0.717,0,0,0,0.693,0.6919,0.6947,0.6971,0.6987,0.6991,0.6997,0.7062,0.7073,0.7092,0.7106,0.7125,0.7125,0.717,0.717,0.7143,0,0,0,0.6928,0.691,0.6944,0.693,0.6985,0.7025,0.6991,0.7068,0.7077,0.7105,0.7125,0.7126,0.717,0.717,0.7144,0.7134,0,0,0,0.691,0.6908,0.6917,0.6929,0.6962,0.7025,0.704,0.7071,0.7086,0.7123,0.7126,0.717,0.717,0.7145,0.7136,0.7139,0,0,0,0.6884,0.6892,0.6916,0.6931,0.6962,0.7008,0.704,0.7076,0.7105,0.7125,0.717,0.717,0.7145,0.7137,0.714,0.7137,0.7134,0,0,0.688,0.689,0.6901,0.6925,0.696,0.6997,0.703,0.7079,0.7105,0.7147,0.7149,0.7144,0.7136,0.7139,0.7125,0.7122,0,0,0,0.6892,0.6899,0.6914,0.694,0.6979,0.7011,0.7058,0.7077,0.7114,0.7122,0.7147,0.7143,0.7146,0.7146,0.7143,0.7147,0.7169,0.7169,0.7169,0.6851,0.6885,0.6904,0.6947,0.6973,0.7022,0.7046,0.708,0.7106,0.7111,0.7123,0.7111,0.711,0.7108,0.7112,0.7125,0.7125,0.7125,0.7125,0.6849,0.6864,0.6899,0.6931,0.6966,0.6993,0.7042,0.7059,0.709,0.7104,0.7108,0.712,0.7104,0.7109,0.7124,0.7124,0.7124,0.7124,0.7124,0.6825,0.6838,0.6861,0.6904,0.6933,0.6977,0.7005,0.7036,0.7066,0.7071,0.7087,0.7087,0.7091,0.7076,0.7076,0.7076,0.7076,0.7076,0.7076,0.6791,0.6818,0.6837,0.6879,0.6901,0.6934,0.6985,0.7007,0.704,0.7061,0.7061,0.7086,0.7096,0.7098,0.7076,0.7076,0.7076,0.7076,0.7076,0.6774,0.6783,0.6813,0.6835,0.6888,0.6915,0.6955,0.6999,0.7022,0.7035,0.706,0.7062,0.7075,0.7077,0.7078,0.7053,0.7053,0.7053,0.7053,0.6753,0.6763,0.6801,0.6834,0.687,0.691,0.6944,0.6984,0.7027,0.7044,0.7052,0.7057,0.7058,0.707,0.7073,0.7074,0.7048,0.7048,0.7048,0.6744,0.6759,0.6781,0.6823,0.6868,0.6905,0.6938,0.6975,0.7026,0.7049,0.7057,0.7058,0.7066,0.7067,0.7088,0.7091,0.7095,0,0]}]]